| time (UTC) | temp F | wind direction | speed MPH | gust MPH | rain 1hr in | rain 24hr in | rain mn in | humidity % | barometer mb |
| 20260831074605 | 67 | 0 | 0.0 | 0.0 | 0.00 | 0.00 | 0.00 | 92 | 1009.8 |
| 20260831073100 | 67 | 0 | 0.0 | 0.0 | 0.00 | 0.00 | 0.00 | 92 | 1009.9 |
| 20260831071605 | 67 | 0 | 0.0 | 0.0 | 0.00 | 0.00 | 0.00 | 92 | 1010.1 |
| 20260831070108 | 67 | 0 | 0.0 | 0.0 | 0.00 | 0.00 | 0.00 | 92 | 1010.5 |
| 20260831064605 | 67 | 0 | 0.0 | 0.0 | 0.00 | 0.00 | 0.00 | 92 | 1010.8 |
| 20260831063057 | 67 | 0 | 0.0 | 0.0 | 0.00 | 0.00 | 0.00 | 92 | 1011.0 |
| 20260831061611 | 67 | 0 | 0.0 | 1.0 | 0.00 | 0.00 | 0.00 | 92 | 1011.0 |
| 20260831060110 | 67 | 0 | 0.0 | 0.0 | 0.00 | 0.00 | 0.00 | 92 | 1011.4 |
| 20260831054614 | 68 | 0 | 0.0 | 0.0 | 0.00 | 0.00 | 0.00 | 91 | 1011.3 |
| 20260831053101 | 68 | 0 | 0.0 | 0.0 | 0.00 | 0.00 | 0.00 | 91 | 1011.4 |
| 20260831051611 | 68 | 0 | 0.0 | 0.0 | 0.00 | 0.00 | 0.00 | 91 | 1012.0 |
| 20260831050104 | 68 | 0 | 0.0 | 0.0 | 0.00 | 0.00 | 0.00 | 91 | 1011.9 |
| 20260831044614 | 68 | 0 | 0.0 | 0.0 | 0.00 | 0.00 | 0.00 | 91 | 1011.8 |
| 20260831043056 | 68 | 0 | 0.0 | 0.0 | 0.00 | 0.00 | 0.00 | 91 | 1011.5 |
| 20260831041600 | 68 | 0 | 0.0 | 0.0 | 0.00 | 0.00 | 0.00 | 90 | 1011.5 |
| 20260831040057 | 68 | 0 | 0.0 | 0.0 | 0.00 | 0.00 | 0.00 | 90 | 1011.8 |
| 20260831034604 | 68 | 0 | 0.0 | 0.0 | 0.00 | 0.00 | 0.00 | 90 | 1012.0 |
| 20260831033106 | 68 | 0 | 0.0 | 0.0 | 0.00 | 0.00 | 0.00 | 90 | 1012.0 |
| 20260831031559 | 68 | 0 | 0.0 | 0.0 | 0.00 | 0.00 | 0.00 | 89 | 1012.0 |
| 20260831030106 | 68 | 0 | 0.0 | 0.0 | 0.00 | 0.00 | 0.00 | 89 | 1012.1 |
| 20260831024605 | 68 | 0 | 0.0 | 0.0 | 0.00 | 0.00 | 0.00 | 89 | 1012.2 |
| 20260831023108 | 69 | 0 | 0.0 | 0.0 | 0.00 | 0.00 | 0.00 | 89 | 1012.4 |
| 20260831021606 | 69 | 0 | 0.0 | 0.0 | 0.00 | 0.00 | 0.00 | 88 | 1012.3 |
| 20260831020107 | 69 | 0 | 0.0 | 0.0 | 0.00 | 0.00 | 0.00 | 88 | 1012.5 |
| 20260831014604 | 69 | 0 | 0.0 | 0.0 | 0.00 | 0.00 | 0.00 | 88 | 1012.3 |
| 20260831013110 | 69 | 0 | 0.0 | 1.0 | 0.00 | 0.00 | 0.00 | 88 | 1012.1 |
| 20260831011603 | 69 | 0 | 0.0 | 2.0 | 0.00 | 0.00 | 0.00 | 87 | 1011.8 |
| 20260831010107 | 69 | 0 | 0.0 | 0.0 | 0.00 | 0.00 | 0.00 | 87 | 1011.9 |
| 20260831004605 | 69 | 0 | 0.0 | 1.0 | 0.00 | 0.00 | 0.00 | 87 | 1012.1 |
| 20260831003111 | 70 | 0 | 0.0 | 1.0 | 0.00 | 0.00 | 0.00 | 86 | 1012.3 |
| 20260831001600 | 70 | 0 | 0.0 | 1.0 | 0.00 | 0.00 | 0.00 | 86 | 1012.4 |
| 20260831000107 | 70 | 0 | 0.0 | 1.0 | 0.00 | 0.00 | 0.00 | 86 | 1012.4 |
| 20260830234607 | 70 | 23 | 0.0 | 3.0 | 0.00 | 0.00 | 0.00 | 86 | 1012.2 |
| 20260830233107 | 70 | 26 | 0.0 | 3.0 | 0.00 | 0.00 | 0.00 | 86 | 1012.3 |
| 20260830231608 | 70 | 0 | 0.0 | 1.0 | 0.00 | 0.00 | 0.00 | 85 | 1012.4 |
| 20260830230107 | 70 | 0 | 1.0 | 4.0 | 0.00 | 0.00 | 0.00 | 85 | 1012.5 |
| 20260830224604 | 70 | 44 | 0.0 | 4.0 | 0.00 | 0.00 | 0.00 | 86 | 1012.5 |
| 20260830223111 | 70 | 38 | 0.0 | 2.0 | 0.00 | 0.00 | 0.00 | 86 | 1012.3 |
| 20260830221609 | 69 | 0 | 0.0 | 3.0 | 0.00 | 0.00 | 0.00 | 86 | 1012.0 |
| 20260830220106 | 70 | 0 | 0.0 | 1.0 | 0.00 | 0.00 | 0.00 | 85 | 1012.6 |
| 20260830214620 | 70 | 5 | 0.0 | 5.0 | 0.00 | 0.00 | 0.00 | 85 | 1012.6 |
| 20260830213103 | 70 | 40 | 0.0 | 2.0 | 0.00 | 0.00 | 0.00 | 85 | 1012.7 |
| 20260830211610 | 71 | 0 | 1.0 | 5.0 | 0.00 | 0.00 | 0.00 | 84 | 1012.6 |
| 20260830210119 | 71 | 46 | 0.0 | 7.0 | 0.00 | 0.00 | 0.00 | 83 | 1012.8 |
| 20260830204608 | 73 | 38 | 1.0 | 4.0 | 0.00 | 0.00 | 0.00 | 81 | 1012.6 |
| 20260830203104 | 75 | 0 | 2.0 | 6.0 | 0.00 | 0.00 | 0.00 | 79 | 1012.6 |
| 20260830201601 | 77 | 0 | 0.0 | 3.0 | 0.00 | 0.00 | 0.00 | 77 | 1012.8 |
| 20260830200105 | 77 | 70 | 0.0 | 6.0 | 0.00 | 0.00 | 0.00 | 77 | 1012.6 |
| 20260830194605 | 76 | 22 | 0.0 | 5.0 | 0.00 | 0.00 | 0.00 | 77 | 1012.5 |
| 20260830193102 | 76 | 145 | 1.0 | 8.0 | 0.00 | 0.00 | 0.00 | 77 | 1012.7 |
| 20260830191606 | 75 | 0 | 0.0 | 3.0 | 0.00 | 0.00 | 0.00 | 78 | 1012.7 |
| 20260830190140 | 74 | 150 | 1.0 | 7.0 | 0.00 | 0.00 | 0.00 | 81 | 1012.6 |
| 20260830184614 | 74 | 348 | 1.0 | 4.0 | 0.00 | 0.00 | 0.00 | 80 | 1012.6 |
| 20260830183114 | 73 | 121 | 0.0 | 6.0 | 0.00 | 0.00 | 0.00 | 81 | 1012.9 |
| 20260830181606 | 73 | 0 | 0.0 | 2.0 | 0.00 | 0.00 | 0.00 | 82 | 1012.9 |
| 20260830180112 | 72 | 27 | 2.0 | 5.0 | 0.00 | 0.00 | 0.00 | 84 | 1012.9 |
| 20260830174608 | 71 | 0 | 0.0 | 5.0 | 0.00 | 0.00 | 0.00 | 84 | 1012.9 |
| 20260830173107 | 71 | 0 | 1.0 | 8.0 | 0.00 | 0.00 | 0.00 | 84 | 1013.0 |
| 20260830171601 | 71 | 33 | 2.0 | 9.0 | 0.00 | 0.00 | 0.00 | 84 | 1013.1 |
| 20260830170107 | 71 | 0 | 0.0 | 9.0 | 0.00 | 0.00 | 0.00 | 85 | 1013.4 |
| 20260830164609 | 69 | 0 | 2.0 | 5.0 | 0.00 | 0.00 | 0.00 | 86 | 1013.5 |
| 20260830163104 | 69 | 15 | 0.0 | 2.0 | 0.00 | 0.00 | 0.00 | 86 | 1013.9 |
| 20260830161607 | 68 | 24 | 0.0 | 4.0 | 0.00 | 0.00 | 0.00 | 87 | 1013.8 |
| 20260830160105 | 68 | 65 | 0.0 | 3.0 | 0.00 | 0.00 | 0.00 | 87 | 1014.0 |
| 20260830154600 | 67 | 39 | 1.0 | 4.0 | 0.00 | 0.00 | 0.00 | 88 | 1013.8 |
| 20260830153100 | 67 | 42 | 1.0 | 5.0 | 0.00 | 0.00 | 0.00 | 88 | 1013.0 |
| 20260830151611 | 67 | 55 | 1.0 | 5.0 | 0.00 | 0.00 | 0.00 | 88 | 1013.1 |
| 20260830150107 | 66 | 35 | 0.0 | 3.0 | 0.00 | 0.00 | 0.00 | 89 | 1013.3 |
| 20260830144604 | 66 | 38 | 2.0 | 5.0 | 0.00 | 0.00 | 0.00 | 90 | 1013.3 |
| 20260830143107 | 65 | 105 | 1.0 | 4.0 | 0.00 | 0.00 | 0.00 | 91 | 1013.2 |
| 20260830141609 | 65 | 28 | 0.0 | 2.0 | 0.00 | 0.00 | 0.00 | 92 | 1013.2 |
| 20260830140104 | 64 | 0 | 0.0 | 8.0 | 0.00 | 0.00 | 0.00 | 92 | 1013.2 |
| 20260830134603 | 64 | 0 | 1.0 | 4.0 | 0.00 | 0.15 | 0.00 | 93 | 1012.8 |
| 20260830133108 | 63 | 40 | 1.0 | 3.0 | 0.00 | 0.15 | 0.00 | 93 | 1013.3 |
| 20260830131558 | 63 | 44 | 0.0 | 2.0 | 0.00 | 0.15 | 0.00 | 93 | 1013.3 |
| 20260830130104 | 62 | 28 | 0.0 | 1.0 | 0.00 | 0.15 | 0.00 | 93 | 1013.5 |
| 20260830124602 | 62 | 0 | 0.0 | 3.0 | 0.00 | 0.15 | 0.00 | 93 | 1013.3 |
| 20260830123059 | 62 | 31 | 0.0 | 3.0 | 0.00 | 0.15 | 0.00 | 93 | 1012.8 |
| 20260830121557 | 62 | 0 | 0.0 | 2.0 | 0.00 | 0.15 | 0.00 | 93 | 1013.1 |
| 20260830120105 | 62 | 0 | 0.0 | 1.0 | 0.00 | 0.15 | 0.00 | 93 | 1012.9 |
| 20260830114601 | 62 | 0 | 0.0 | 1.0 | 0.00 | 0.15 | 0.00 | 93 | 1012.9 |
| 20260830113107 | 61 | 0 | 0.0 | 2.0 | 0.00 | 0.15 | 0.00 | 93 | 1013.0 |
| 20260830111606 | 61 | 0 | 0.0 | 0.0 | 0.00 | 0.15 | 0.00 | 93 | 1013.0 |
| 20260830110105 | 61 | 0 | 0.0 | 1.0 | 0.00 | 0.15 | 0.00 | 93 | 1013.1 |
| 20260830104614 | 61 | 0 | 0.0 | 1.0 | 0.00 | 0.15 | 0.00 | 93 | 1013.1 |
| 20260830103100 | 61 | 0 | 0.0 | 1.0 | 0.00 | 0.15 | 0.00 | 93 | 1012.7 |
| 20260830101607 | 61 | 0 | 0.0 | 0.0 | 0.00 | 0.15 | 0.00 | 93 | 1012.5 |
| 20260830100107 | 61 | 0 | 0.0 | 0.0 | 0.00 | 0.15 | 0.00 | 93 | 1012.6 |
| 20260830094611 | 61 | 0 | 0.0 | 0.0 | 0.00 | 0.15 | 0.00 | 93 | 1012.5 |
| 20260830093104 | 61 | 0 | 0.0 | 0.0 | 0.00 | 0.15 | 0.00 | 93 | 1012.4 |
| 20260830091604 | 61 | 0 | 0.0 | 0.0 | 0.00 | 0.15 | 0.00 | 92 | 1012.3 |
| 20260830084605 | 61 | 0 | 0.0 | 0.0 | 0.00 | 0.15 | 0.00 | 92 | 1012.6 |
| 20260830083108 | 61 | 0 | 0.0 | 0.0 | 0.00 | 0.15 | 0.00 | 92 | 1012.8 |
| 20260830081607 | 61 | 0 | 0.0 | 0.0 | 0.00 | 0.15 | 0.00 | 92 | 1012.6 |
| 20260830080105 | 61 | 0 | 0.0 | 0.0 | 0.00 | 0.15 | 0.00 | 92 | 1012.2 |